Time,TemperatureF,DewpointF,PressureIn,WindDirection,WindDirectionDegrees,WindSpeedMPH,WindSpeedGustMPH,Humidity,HourlyPrecipIn,Conditions,Clouds,dailyrainin,SoftwareType,DateUTC
2014-08-27 00:00:00,63.5,52.3,29.95,SW,235,0.0,0.0,67,0.00,,,-99.99,meteobridge,2014-08-27 07:00:00,
2014-08-27 00:03:00,63.3,52.2,29.95,SW,235,0.0,0.0,67,0.00,,,0.00,meteobridge,2014-08-27 07:03:00,
2014-08-27 00:04:00,63.3,52.2,29.95,SW,235,0.0,0.0,67,0.00,,,0.00,meteobridge,2014-08-27 07:04:00,
2014-08-27 00:05:00,63.3,52.5,29.95,SW,235,0.0,0.0,68,0.00,,,0.00,meteobridge,2014-08-27 07:05:00,
2014-08-27 00:07:00,63.3,52.2,29.95,SW,235,0.0,0.0,67,0.00,,,0.00,meteobridge,2014-08-27 07:07:00,
2014-08-27 00:08:00,63.3,52.2,29.95,SW,235,0.0,0.0,67,0.00,,,0.00,meteobridge,2014-08-27 07:08:00,
2014-08-27 00:09:00,63.1,52.0,29.95,SW,235,0.0,0.0,67,0.00,,,0.00,meteobridge,2014-08-27 07:09:00,
2014-08-27 00:10:00,63.1,52.0,29.95,SW,235,0.0,0.0,67,0.00,,,0.00,meteobridge,2014-08-27 07:10:00,
2014-08-27 00:12:00,63.1,52.0,29.95,SW,235,0.0,1.0,67,0.00,,,0.00,meteobridge,2014-08-27 07:12:00,
2014-08-27 00:13:00,63.1,52.0,29.95,SW,235,0.0,1.0,67,0.00,,,0.00,meteobridge,2014-08-27 07:13:00,
2014-08-27 00:14:00,63.0,52.2,29.95,SW,235,0.0,1.0,68,0.00,,,0.00,meteobridge,2014-08-27 07:14:00,
2014-08-27 00:15:00,63.0,52.2,29.95,SW,235,0.0,1.0,68,0.00,,,0.00,meteobridge,2014-08-27 07:15:00,
2014-08-27 00:17:00,63.0,52.2,29.95,SW,235,0.0,0.0,68,0.00,,,0.00,meteobridge,2014-08-27 07:17:00,
2014-08-27 00:18:00,63.0,52.2,29.95,SW,235,0.0,0.0,68,0.00,,,0.00,meteobridge,2014-08-27 07:18:00,
2014-08-27 00:19:00,62.8,52.0,29.95,SW,235,0.0,0.0,68,0.00,,,0.00,meteobridge,2014-08-27 07:19:00,
2014-08-27 00:21:00,62.8,52.0,29.95,SW,235,0.9,1.0,68,0.00,,,0.00,meteobridge,2014-08-27 07:21:00,
2014-08-27 00:22:00,62.8,52.0,29.95,SW,235,0.0,1.0,68,0.00,,,0.00,meteobridge,2014-08-27 07:22:00,
2014-08-27 00:23:00,62.6,52.0,29.95,SW,235,0.0,1.0,68,0.00,,,0.00,meteobridge,2014-08-27 07:23:00,
2014-08-27 00:24:00,62.6,52.0,29.95,SW,235,0.0,1.0,68,0.00,,,0.00,meteobridge,2014-08-27 07:24:00,
2014-08-27 00:25:00,62.6,52.0,29.95,SW,235,0.0,1.0,68,0.00,,,0.00,meteobridge,2014-08-27 07:25:00,
2014-08-27 00:26:00,62.6,52.3,29.95,SW,235,0.0,0.0,69,0.00,,,0.00,meteobridge,2014-08-27 07:26:00,
2014-08-27 00:28:00,62.4,52.2,29.95,SW,235,0.0,0.0,69,0.00,,,0.00,meteobridge,2014-08-27 07:28:00,
2014-08-27 00:30:00,62.4,52.2,29.95,SW,235,0.0,0.0,69,0.00,,,0.00,meteobridge,2014-08-27 07:30:00,
2014-08-27 00:31:00,62.4,52.2,29.96,SW,235,0.0,0.0,69,0.00,,,0.00,meteobridge,2014-08-27 07:31:00,
2014-08-27 00:33:00,62.4,52.2,29.96,SW,235,0.0,0.0,69,0.00,,,0.00,meteobridge,2014-08-27 07:33:00,
2014-08-27 00:34:00,62.4,52.2,29.96,SW,235,0.0,0.0,69,0.00,,,0.00,meteobridge,2014-08-27 07:34:00,
2014-08-27 00:35:00,62.4,52.2,29.96,SW,235,0.0,0.0,69,0.00,,,0.00,meteobridge,2014-08-27 07:35:00,
2014-08-27 00:36:00,62.2,52.0,29.95,SW,235,0.0,0.0,69,0.00,,,0.00,meteobridge,2014-08-27 07:36:00,
2014-08-27 00:37:00,62.2,52.0,29.96,SW,235,0.0,0.0,69,0.00,,,0.00,meteobridge,2014-08-27 07:37:00,
2014-08-27 00:38:00,62.2,52.0,29.96,SW,235,0.0,0.0,69,0.00,,,0.00,meteobridge,2014-08-27 07:38:00,
2014-08-27 00:40:00,62.2,52.0,29.96,SW,235,0.0,0.0,69,0.00,,,0.00,meteobridge,2014-08-27 07:40:00,
2014-08-27 00:41:00,62.2,52.0,29.96,SW,235,0.0,0.0,69,0.00,,,0.00,meteobridge,2014-08-27 07:41:00,
2014-08-27 00:42:00,62.2,52.0,29.96,SW,235,0.0,0.0,69,0.00,,,0.00,meteobridge,2014-08-27 07:42:00,
2014-08-27 00:43:00,62.2,52.0,29.96,SW,235,0.0,1.0,69,0.00,,,0.00,meteobridge,2014-08-27 07:43:00,
2014-08-27 00:45:00,62.1,51.8,29.96,SW,235,0.0,0.0,69,0.00,,,0.00,meteobridge,2014-08-27 07:45:00,
2014-08-27 00:46:00,62.1,51.8,29.96,SW,235,0.0,0.0,69,0.00,,,0.00,meteobridge,2014-08-27 07:46:00,
2014-08-27 00:47:00,62.1,51.8,29.96,SW,235,0.0,0.0,69,0.00,,,0.00,meteobridge,2014-08-27 07:47:00,
2014-08-27 00:50:00,62.1,51.8,29.96,SW,235,0.0,1.0,69,0.00,,,0.00,meteobridge,2014-08-27 07:50:00,
2014-08-27 00:51:00,62.1,52.2,29.96,SW,235,0.0,0.0,70,0.00,,,0.00,meteobridge,2014-08-27 07:51:00,
2014-08-27 00:52:00,62.1,52.2,29.96,SW,235,0.0,0.0,70,0.00,,,0.00,meteobridge,2014-08-27 07:52:00,
2014-08-27 00:53:00,62.1,52.2,29.96,SW,235,0.0,1.0,70,0.00,,,0.00,meteobridge,2014-08-27 07:53:00,
2014-08-27 00:55:00,61.9,52.0,29.96,SW,235,0.0,0.0,70,0.00,,,0.00,meteobridge,2014-08-27 07:55:00,
2014-08-27 00:56:00,61.9,52.0,29.96,SW,235,0.0,0.0,70,0.00,,,0.00,meteobridge,2014-08-27 07:56:00,
2014-08-27 00:57:00,61.9,52.0,29.96,SW,235,0.0,0.0,70,0.00,,,0.00,meteobridge,2014-08-27 07:57:00,
2014-08-27 00:58:00,61.9,52.0,29.96,SW,235,0.0,0.0,70,0.00,,,0.00,meteobridge,2014-08-27 07:58:00,
2014-08-27 00:59:00,61.9,52.0,29.96,SW,235,0.0,0.0,70,0.00,,,0.00,meteobridge,2014-08-27 07:59:00,
2014-08-27 01:01:00,61.9,52.0,29.96,SW,235,0.0,0.0,70,0.00,,,0.00,meteobridge,2014-08-27 08:01:00,
2014-08-27 01:02:00,61.9,52.0,29.96,SW,235,0.0,0.0,70,0.00,,,0.00,meteobridge,2014-08-27 08:02:00,
2014-08-27 01:03:00,61.9,52.0,29.96,SW,235,0.0,0.0,70,0.00,,,0.00,meteobridge,2014-08-27 08:03:00,
2014-08-27 01:04:00,61.7,51.8,29.96,SW,235,0.0,1.0,70,0.00,,,0.00,meteobridge,2014-08-27 08:04:00,
2014-08-27 01:05:00,61.7,51.8,29.96,SW,235,0.0,1.0,70,0.00,,,0.00,meteobridge,2014-08-27 08:05:00,
2014-08-27 01:06:00,61.7,51.8,29.96,SW,235,0.0,0.0,70,0.00,,,0.00,meteobridge,2014-08-27 08:06:00,
2014-08-27 01:08:00,61.5,51.6,29.96,SW,235,0.0,0.0,70,0.00,,,0.00,meteobridge,2014-08-27 08:08:00,
2014-08-27 01:09:00,61.5,51.6,29.96,SW,235,0.0,0.0,70,0.00,,,0.00,meteobridge,2014-08-27 08:09:00,
2014-08-27 01:10:00,61.5,51.6,29.96,SW,235,0.0,1.0,70,0.00,,,0.00,meteobridge,2014-08-27 08:10:00,
2014-08-27 01:11:00,61.5,51.6,29.96,SW,235,0.0,1.0,70,0.00,,,0.00,meteobridge,2014-08-27 08:11:00,
2014-08-27 01:12:00,61.5,51.6,29.96,SW,235,0.0,1.0,70,0.00,,,0.00,meteobridge,2014-08-27 08:12:00,
2014-08-27 01:13:00,61.5,51.6,29.96,SW,235,0.0,0.0,70,0.00,,,0.00,meteobridge,2014-08-27 08:13:00,
2014-08-27 01:14:00,61.5,51.6,29.96,SW,235,0.0,0.0,70,0.00,,,0.00,meteobridge,2014-08-27 08:14:00,
2014-08-27 01:15:00,61.5,51.6,29.96,SW,235,0.0,0.0,70,0.00,,,0.00,meteobridge,2014-08-27 08:15:00,
2014-08-27 01:16:00,61.5,51.6,29.96,SW,235,0.0,0.0,70,0.00,,,0.00,meteobridge,2014-08-27 08:16:00,
2014-08-27 01:17:00,61.5,51.6,29.96,SW,235,0.0,0.0,70,0.00,,,0.00,meteobridge,2014-08-27 08:17:00,
2014-08-27 01:19:00,61.5,51.6,29.96,SW,235,0.0,0.0,70,0.00,,,0.00,meteobridge,2014-08-27 08:19:00,
2014-08-27 01:20:00,61.3,51.4,29.96,SW,235,0.0,0.0,70,0.00,,,0.00,meteobridge,2014-08-27 08:20:00,
2014-08-27 01:22:00,61.3,51.4,29.96,SW,235,0.0,0.0,70,0.00,,,0.00,meteobridge,2014-08-27 08:22:00,
2014-08-27 01:24:00,61.3,51.4,29.96,SW,235,0.0,0.0,70,0.00,,,0.00,meteobridge,2014-08-27 08:24:00,
2014-08-27 01:25:00,61.3,51.4,29.96,SW,235,0.0,0.0,70,0.00,,,0.00,meteobridge,2014-08-27 08:25:00,
2014-08-27 01:27:00,61.3,51.4,29.96,SW,235,0.0,0.0,70,0.00,,,0.00,meteobridge,2014-08-27 08:27:00,
2014-08-27 01:29:00,61.3,51.4,29.96,SW,235,0.0,1.0,70,0.00,,,0.00,meteobridge,2014-08-27 08:29:00,
2014-08-27 01:30:00,61.3,51.4,29.96,SW,235,0.0,1.0,70,0.00,,,0.00,meteobridge,2014-08-27 08:30:00,
2014-08-27 01:31:00,61.3,51.8,29.96,SW,235,0.0,1.0,71,0.00,,,0.00,meteobridge,2014-08-27 08:31:00,
2014-08-27 01:32:00,61.3,51.8,29.96,SW,235,0.0,1.0,71,0.00,,,0.00,meteobridge,2014-08-27 08:32:00,
2014-08-27 01:35:00,61.2,51.3,29.96,SSE,162,0.0,1.0,70,0.00,,,0.00,meteobridge,2014-08-27 08:35:00,
2014-08-27 01:36:00,61.2,51.3,29.96,SSE,162,0.0,0.0,70,0.00,,,0.00,meteobridge,2014-08-27 08:36:00,
2014-08-27 01:37:00,61.2,51.3,29.96,SSE,162,0.0,0.0,70,0.00,,,0.00,meteobridge,2014-08-27 08:37:00,
2014-08-27 01:41:00,61.3,51.4,29.96,SSE,162,0.0,0.0,70,0.00,,,0.00,meteobridge,2014-08-27 08:41:00,
2014-08-27 01:43:00,61.3,51.4,29.96,SSE,162,0.0,0.0,70,0.00,,,0.00,meteobridge,2014-08-27 08:43:00,
2014-08-27 01:46:00,61.3,51.4,29.96,SSE,162,0.0,0.0,70,0.00,,,0.00,meteobridge,2014-08-27 08:46:00,
2014-08-27 01:47:00,61.3,51.4,29.96,SSE,162,0.0,0.0,70,0.00,,,0.00,meteobridge,2014-08-27 08:47:00,
2014-08-27 01:48:00,61.3,51.4,29.96,SSE,162,0.0,0.0,70,0.00,,,0.00,meteobridge,2014-08-27 08:48:00,
2014-08-27 01:52:00,61.3,51.4,29.96,SSE,162,0.0,0.0,70,0.00,,,0.00,meteobridge,2014-08-27 08:52:00,
2014-08-27 01:53:00,61.3,51.4,29.96,SSE,162,0.0,0.0,70,0.00,,,0.00,meteobridge,2014-08-27 08:53:00,
2014-08-27 01:54:00,61.3,51.4,29.96,SSE,162,0.0,0.0,70,0.00,,,0.00,meteobridge,2014-08-27 08:54:00,
2014-08-27 01:57:00,61.3,51.4,29.96,SSE,162,0.0,0.0,70,0.00,,,0.00,meteobridge,2014-08-27 08:57:00,
2014-08-27 01:58:00,61.5,51.6,29.96,SSE,162,0.0,0.0,70,0.00,,,0.00,meteobridge,2014-08-27 08:58:00,
2014-08-27 01:59:00,61.5,51.6,29.96,SSE,162,0.0,0.0,70,0.00,,,0.00,meteobridge,2014-08-27 08:59:00,
2014-08-27 02:00:00,61.5,51.6,29.96,SSE,162,0.0,0.0,70,0.00,,,0.00,meteobridge,2014-08-27 09:00:00,
2014-08-27 02:02:00,61.5,51.6,29.96,SSE,162,0.0,0.0,70,0.00,,,0.00,meteobridge,2014-08-27 09:02:00,
2014-08-27 02:03:00,61.5,51.6,29.96,SSE,162,0.0,0.0,70,0.00,,,0.00,meteobridge,2014-08-27 09:03:00,
2014-08-27 02:04:00,61.7,51.8,29.96,SSE,162,0.0,0.0,70,0.00,,,0.00,meteobridge,2014-08-27 09:04:00,
2014-08-27 02:05:00,61.7,51.8,29.96,SSE,162,0.0,0.0,70,0.00,,,0.00,meteobridge,2014-08-27 09:05:00,
2014-08-27 02:07:00,61.9,52.0,29.96,SSE,162,0.0,0.0,70,0.00,,,0.00,meteobridge,2014-08-27 09:07:00,
2014-08-27 02:08:00,61.9,52.0,29.96,SSE,162,0.0,0.0,70,0.00,,,0.00,meteobridge,2014-08-27 09:08:00,
2014-08-27 02:09:00,62.1,52.2,29.96,SSE,162,0.0,0.0,70,0.00,,,0.00,meteobridge,2014-08-27 09:09:00,
2014-08-27 02:13:00,62.2,52.3,29.96,SSE,162,0.0,0.0,70,0.00,,,0.00,meteobridge,2014-08-27 09:13:00,
2014-08-27 02:14:00,62.4,52.5,29.96,SSE,162,0.0,0.0,70,0.00,,,0.00,meteobridge,2014-08-27 09:14:00,
2014-08-27 02:15:00,62.4,52.2,29.96,SSE,162,0.0,0.0,69,0.00,,,0.00,meteobridge,2014-08-27 09:15:00,
2014-08-27 02:18:00,62.8,52.5,29.96,SSE,162,0.0,0.0,69,0.00,,,0.00,meteobridge,2014-08-27 09:18:00,
2014-08-27 02:19:00,62.8,52.5,29.96,SSE,162,0.0,0.0,69,0.00,,,0.00,meteobridge,2014-08-27 09:19:00,
2014-08-27 02:20:00,62.8,52.5,29.96,SSE,162,0.0,0.0,69,0.00,,,0.00,meteobridge,2014-08-27 09:20:00,
2014-08-27 02:21:00,62.8,52.0,29.96,SSE,162,0.0,0.0,68,0.00,,,0.00,meteobridge,2014-08-27 09:21:00,
2014-08-27 02:23:00,62.8,52.0,29.96,SSE,162,0.0,0.0,68,0.00,,,0.00,meteobridge,2014-08-27 09:23:00,
2014-08-27 02:24:00,62.8,52.0,29.96,SSE,162,0.0,0.0,68,0.00,,,0.00,meteobridge,2014-08-27 09:24:00,
2014-08-27 02:25:00,62.8,52.0,29.96,SSE,162,0.0,0.0,68,0.00,,,0.00,meteobridge,2014-08-27 09:25:00,
2014-08-27 02:27:00,62.8,52.0,29.96,SSE,162,0.0,0.0,68,0.00,,,0.00,meteobridge,2014-08-27 09:27:00,
2014-08-27 02:28:00,63.0,52.2,29.96,SSE,162,0.0,0.0,68,0.00,,,0.00,meteobridge,2014-08-27 09:28:00,
2014-08-27 02:29:00,63.0,52.2,29.96,SSE,162,0.0,0.0,68,0.00,,,0.00,meteobridge,2014-08-27 09:29:00,
2014-08-27 02:30:00,63.0,52.2,29.96,SSE,162,0.0,0.0,68,0.00,,,0.00,meteobridge,2014-08-27 09:30:00,
2014-08-27 02:32:00,63.0,51.8,29.96,SSE,162,0.0,0.0,67,0.00,,,0.00,meteobridge,2014-08-27 09:32:00,
2014-08-27 02:34:00,63.0,51.8,29.96,SSE,162,0.0,0.0,67,0.00,,,0.00,meteobridge,2014-08-27 09:34:00,
2014-08-27 02:35:00,62.8,51.6,29.96,SSE,162,0.0,0.0,67,0.00,,,0.00,meteobridge,2014-08-27 09:35:00,
2014-08-27 02:36:00,62.8,51.6,29.96,SSE,162,0.0,0.0,67,0.00,,,0.00,meteobridge,2014-08-27 09:36:00,
2014-08-27 02:37:00,62.8,51.6,29.96,SSE,162,0.0,0.0,67,0.00,,,0.00,meteobridge,2014-08-27 09:37:00,
2014-08-27 02:39:00,62.8,51.6,29.96,SSE,162,0.0,0.0,67,0.00,,,0.00,meteobridge,2014-08-27 09:39:00,
2014-08-27 02:40:00,62.8,51.6,29.96,SSE,162,0.0,0.0,67,0.00,,,0.00,meteobridge,2014-08-27 09:40:00,
2014-08-27 02:41:00,62.8,51.6,29.96,SSE,162,0.0,0.0,67,0.00,,,0.00,meteobridge,2014-08-27 09:41:00,
2014-08-27 02:42:00,62.8,51.6,29.96,SSE,162,0.0,0.0,67,0.00,,,0.00,meteobridge,2014-08-27 09:42:00,
2014-08-27 02:45:00,62.8,51.6,29.96,SSE,162,0.0,0.0,67,0.00,,,0.00,meteobridge,2014-08-27 09:45:00,
2014-08-27 02:46:00,62.8,51.6,29.96,SSE,162,0.0,0.0,67,0.00,,,0.00,meteobridge,2014-08-27 09:46:00,
2014-08-27 02:47:00,62.8,51.6,29.96,SSE,162,0.0,0.0,67,0.00,,,0.00,meteobridge,2014-08-27 09:47:00,
2014-08-27 02:50:00,62.6,52.0,29.97,SSE,162,0.0,0.0,68,0.00,,,0.00,meteobridge,2014-08-27 09:50:00,
2014-08-27 02:51:00,62.4,51.8,29.97,SSE,162,0.0,0.0,68,0.00,,,0.00,meteobridge,2014-08-27 09:51:00,
2014-08-27 02:52:00,62.4,51.8,29.97,SSE,162,0.0,0.0,68,0.00,,,0.00,meteobridge,2014-08-27 09:52:00,
2014-08-27 02:56:00,62.2,51.6,29.97,SSE,162,0.0,0.0,68,0.00,,,0.00,meteobridge,2014-08-27 09:56:00,
2014-08-27 02:57:00,62.2,51.6,29.97,SSE,162,0.0,0.0,68,0.00,,,0.00,meteobridge,2014-08-27 09:57:00,
2014-08-27 02:58:00,62.2,51.6,29.97,SSE,162,0.0,0.0,68,0.00,,,0.00,meteobridge,2014-08-27 09:58:00,
2014-08-27 02:59:00,62.1,51.4,29.97,SSE,162,0.0,0.0,68,0.00,,,0.00,meteobridge,2014-08-27 09:59:00,
2014-08-27 03:02:00,62.1,51.4,29.97,SSE,162,0.0,0.0,68,0.00,,,0.00,meteobridge,2014-08-27 10:02:00,
2014-08-27 03:03:00,62.1,51.4,29.97,SSE,162,0.0,0.0,68,0.00,,,0.00,meteobridge,2014-08-27 10:03:00,
2014-08-27 03:04:00,62.1,51.4,29.97,SSE,162,0.0,0.0,68,0.00,,,0.00,meteobridge,2014-08-27 10:04:00,
2014-08-27 03:07:00,61.9,51.6,29.97,SSE,162,0.0,0.0,69,0.00,,,0.00,meteobridge,2014-08-27 10:07:00,
2014-08-27 03:08:00,61.9,51.6,29.97,SSE,162,0.0,0.0,69,0.00,,,0.00,meteobridge,2014-08-27 10:08:00,
2014-08-27 03:09:00,61.9,51.6,29.97,SSE,162,0.0,0.0,69,0.00,,,0.00,meteobridge,2014-08-27 10:09:00,
2014-08-27 03:11:00,61.7,51.4,29.97,SSE,162,0.0,0.0,69,0.00,,,0.00,meteobridge,2014-08-27 10:11:00,
2014-08-27 03:12:00,61.7,51.4,29.97,SSE,162,0.0,0.0,69,0.00,,,0.00,meteobridge,2014-08-27 10:12:00,
2014-08-27 03:14:00,61.5,51.3,29.97,SSE,162,0.0,0.0,69,0.00,,,0.00,meteobridge,2014-08-27 10:14:00,
2014-08-27 03:15:00,61.5,51.3,29.97,SSE,162,0.0,0.0,69,0.00,,,0.00,meteobridge,2014-08-27 10:15:00,
2014-08-27 03:18:00,61.5,51.6,29.97,SSE,162,0.0,0.0,70,0.00,,,0.00,meteobridge,2014-08-27 10:18:00,
2014-08-27 03:19:00,61.5,51.6,29.97,SSE,162,0.0,0.0,70,0.00,,,0.00,meteobridge,2014-08-27 10:19:00,
2014-08-27 03:20:00,61.5,51.6,29.97,SSE,162,0.0,0.0,70,0.00,,,0.00,meteobridge,2014-08-27 10:20:00,
2014-08-27 03:21:00,61.3,51.4,29.97,SSE,162,0.0,0.0,70,0.00,,,0.00,meteobridge,2014-08-27 10:21:00,
2014-08-27 03:23:00,61.3,51.4,29.97,SSE,162,0.0,0.0,70,0.00,,,0.00,meteobridge,2014-08-27 10:23:00,
2014-08-27 03:24:00,61.3,51.4,29.97,SSE,162,0.0,0.0,70,0.00,,,0.00,meteobridge,2014-08-27 10:24:00,
2014-08-27 03:26:00,61.3,51.4,29.97,SSE,162,0.0,0.0,70,0.00,,,0.00,meteobridge,2014-08-27 10:26:00,
2014-08-27 03:27:00,61.3,51.4,29.97,SSE,162,0.0,0.0,70,0.00,,,0.00,meteobridge,2014-08-27 10:27:00,
2014-08-27 03:28:00,61.2,51.3,29.97,SSE,162,0.0,0.0,70,0.00,,,0.00,meteobridge,2014-08-27 10:28:00,
2014-08-27 03:29:00,61.2,51.3,29.97,SSE,162,0.0,0.0,70,0.00,,,0.00,meteobridge,2014-08-27 10:29:00,
2014-08-27 03:30:00,61.2,51.3,29.97,SSE,162,0.0,0.0,70,0.00,,,0.00,meteobridge,2014-08-27 10:30:00,
2014-08-27 03:31:00,61.2,51.3,29.97,SSE,162,0.0,0.0,70,0.00,,,0.00,meteobridge,2014-08-27 10:31:00,
2014-08-27 03:32:00,61.2,51.3,29.97,SSE,162,0.0,0.0,70,0.00,,,0.00,meteobridge,2014-08-27 10:32:00,
2014-08-27 03:33:00,61.2,51.3,29.97,SSE,162,0.0,0.0,70,0.00,,,0.00,meteobridge,2014-08-27 10:33:00,
2014-08-27 03:34:00,61.2,51.6,29.97,SSE,162,0.0,0.0,71,0.00,,,0.00,meteobridge,2014-08-27 10:34:00,
2014-08-27 03:35:00,61.2,51.6,29.97,SSE,162,0.0,0.0,71,0.00,,,0.00,meteobridge,2014-08-27 10:35:00,
2014-08-27 03:37:00,61.2,51.6,29.97,SSE,162,0.0,0.0,71,0.00,,,0.00,meteobridge,2014-08-27 10:37:00,
2014-08-27 03:38:00,61.2,51.6,29.97,SSE,162,0.0,0.0,71,0.00,,,0.00,meteobridge,2014-08-27 10:38:00,
2014-08-27 03:39:00,61.2,51.6,29.97,SSE,162,0.0,0.0,71,0.00,,,0.00,meteobridge,2014-08-27 10:39:00,
2014-08-27 03:40:00,61.2,51.6,29.97,SSE,162,0.0,0.0,71,0.00,,,0.00,meteobridge,2014-08-27 10:40:00,
2014-08-27 03:41:00,61.2,51.6,29.97,SSE,162,0.0,0.0,71,0.00,,,0.00,meteobridge,2014-08-27 10:41:00,
2014-08-27 03:42:00,61.2,51.6,29.97,SSE,162,0.0,0.0,71,0.00,,,0.00,meteobridge,2014-08-27 10:42:00,
2014-08-27 03:43:00,61.2,51.6,29.97,SSE,162,0.0,0.0,71,0.00,,,0.00,meteobridge,2014-08-27 10:43:00,
2014-08-27 03:44:00,61.2,51.6,29.97,SSE,162,0.0,0.0,71,0.00,,,0.00,meteobridge,2014-08-27 10:44:00,
2014-08-27 03:45:00,61.2,51.6,29.97,SSE,162,0.0,0.0,71,0.00,,,0.00,meteobridge,2014-08-27 10:45:00,
2014-08-27 03:46:00,61.2,51.6,29.97,SSE,162,0.0,0.0,71,0.00,,,0.00,meteobridge,2014-08-27 10:46:00,
2014-08-27 03:47:00,61.2,51.6,29.97,SSE,162,0.0,0.0,71,0.00,,,0.00,meteobridge,2014-08-27 10:47:00,
2014-08-27 03:49:00,61.2,51.6,29.97,SSE,162,0.0,0.0,71,0.00,,,0.00,meteobridge,2014-08-27 10:49:00,
2014-08-27 03:50:00,61.2,51.6,29.97,SSE,162,0.0,0.0,71,0.00,,,0.00,meteobridge,2014-08-27 10:50:00,
2014-08-27 03:52:00,61.0,51.4,29.97,SSE,162,0.0,0.0,71,0.00,,,0.00,meteobridge,2014-08-27 10:52:00,
2014-08-27 03:53:00,61.0,51.4,29.97,SSE,162,0.0,0.0,71,0.00,,,0.00,meteobridge,2014-08-27 10:53:00,
2014-08-27 03:54:00,61.0,51.4,29.97,SSE,162,0.0,0.0,71,0.00,,,0.00,meteobridge,2014-08-27 10:54:00,
2014-08-27 03:55:00,61.0,51.4,29.98,SSE,162,0.0,0.0,71,0.00,,,0.00,meteobridge,2014-08-27 10:55:00,
2014-08-27 03:56:00,61.0,51.4,29.98,SSE,162,0.0,0.0,71,0.00,,,0.00,meteobridge,2014-08-27 10:56:00,
2014-08-27 03:58:00,61.0,51.4,29.97,SSE,162,0.0,0.0,71,0.00,,,0.00,meteobridge,2014-08-27 10:58:00,
2014-08-27 03:59:00,61.0,51.4,29.97,SSE,162,0.0,0.0,71,0.00,,,0.00,meteobridge,2014-08-27 10:59:00,
2014-08-27 04:01:00,61.0,51.4,29.97,SSE,162,0.0,0.0,71,0.00,,,0.00,meteobridge,2014-08-27 11:01:00,
2014-08-27 04:03:00,61.0,51.4,29.97,SSE,162,0.0,0.0,71,0.00,,,0.00,meteobridge,2014-08-27 11:03:00,
2014-08-27 04:04:00,61.0,51.4,29.97,SSE,162,0.0,0.0,71,0.00,,,0.00,meteobridge,2014-08-27 11:04:00,
2014-08-27 04:05:00,61.0,51.4,29.97,SSE,162,0.0,0.0,71,0.00,,,0.00,meteobridge,2014-08-27 11:05:00,
2014-08-27 04:06:00,61.0,51.4,29.98,SSE,162,0.0,0.0,71,0.00,,,0.00,meteobridge,2014-08-27 11:06:00,
2014-08-27 04:08:00,61.0,51.4,29.98,SSE,162,0.0,0.0,71,0.00,,,0.00,meteobridge,2014-08-27 11:08:00,
2014-08-27 04:09:00,61.0,51.4,29.98,SSE,162,0.0,0.0,71,0.00,,,0.00,meteobridge,2014-08-27 11:09:00,
2014-08-27 04:10:00,61.0,51.4,29.98,SSE,162,0.0,0.0,71,0.00,,,0.00,meteobridge,2014-08-27 11:10:00,
2014-08-27 04:11:00,61.2,51.6,29.98,SSE,162,0.0,0.0,71,0.00,,,0.00,meteobridge,2014-08-27 11:11:00,
2014-08-27 04:14:00,61.2,51.6,29.98,SSE,162,0.0,0.0,71,0.00,,,0.00,meteobridge,2014-08-27 11:14:00,
2014-08-27 04:16:00,61.2,51.6,29.98,SSE,162,0.0,0.0,71,0.00,,,0.00,meteobridge,2014-08-27 11:16:00,
2014-08-27 04:17:00,61.2,51.6,29.98,SSE,162,0.0,0.0,71,0.00,,,0.00,meteobridge,2014-08-27 11:17:00,
2014-08-27 04:19:00,61.2,51.6,29.98,SSE,162,0.0,0.0,71,0.00,,,0.00,meteobridge,2014-08-27 11:19:00,
2014-08-27 04:21:00,61.2,51.6,29.98,SSE,162,0.0,0.0,71,0.00,,,0.00,meteobridge,2014-08-27 11:21:00,
2014-08-27 04:22:00,61.2,51.6,29.98,SSE,162,0.0,0.0,71,0.00,,,0.00,meteobridge,2014-08-27 11:22:00,
2014-08-27 04:23:00,61.2,51.6,29.98,SSE,162,0.0,0.0,71,0.00,,,0.00,meteobridge,2014-08-27 11:23:00,
2014-08-27 04:26:00,61.2,51.6,29.98,SSE,162,0.0,0.0,71,0.00,,,0.00,meteobridge,2014-08-27 11:26:00,
2014-08-27 04:27:00,61.2,51.6,29.98,SSE,162,0.0,0.0,71,0.00,,,0.00,meteobridge,2014-08-27 11:27:00,
2014-08-27 04:28:00,61.2,51.6,29.98,SSE,162,0.0,0.0,71,0.00,,,0.00,meteobridge,2014-08-27 11:28:00,
2014-08-27 04:29:00,61.2,51.6,29.98,SSE,162,0.0,0.0,71,0.00,,,0.00,meteobridge,2014-08-27 11:29:00,
2014-08-27 04:32:00,61.2,51.6,29.98,SSE,162,0.0,0.0,71,0.00,,,0.00,meteobridge,2014-08-27 11:32:00,
2014-08-27 04:33:00,61.2,51.6,29.98,SSE,162,0.0,0.0,71,0.00,,,0.00,meteobridge,2014-08-27 11:33:00,
2014-08-27 04:34:00,61.2,51.3,29.98,SSE,162,0.0,0.0,70,0.00,,,0.00,meteobridge,2014-08-27 11:34:00,
2014-08-27 04:38:00,61.2,51.3,29.98,SSE,162,0.0,0.0,70,0.00,,,0.00,meteobridge,2014-08-27 11:38:00,
2014-08-27 04:39:00,61.2,51.3,29.98,SSE,162,0.0,0.0,70,0.00,,,0.00,meteobridge,2014-08-27 11:39:00,
2014-08-27 04:40:00,61.2,51.3,29.98,SSE,162,0.0,0.0,70,0.00,,,0.00,meteobridge,2014-08-27 11:40:00,
2014-08-27 04:42:00,61.2,51.3,29.98,SSE,162,0.0,0.0,70,0.00,,,0.00,meteobridge,2014-08-27 11:42:00,
2014-08-27 04:43:00,61.2,51.3,29.98,SSE,162,0.0,0.0,70,0.00,,,0.00,meteobridge,2014-08-27 11:43:00,
2014-08-27 04:44:00,61.2,51.3,29.98,SSE,162,0.0,0.0,70,0.00,,,0.00,meteobridge,2014-08-27 11:44:00,
2014-08-27 04:45:00,61.2,51.3,29.98,SSE,162,0.0,0.0,70,0.00,,,0.00,meteobridge,2014-08-27 11:45:00,
2014-08-27 04:47:00,61.2,51.3,29.98,SSE,162,0.0,0.0,70,0.00,,,0.00,meteobridge,2014-08-27 11:47:00,
2014-08-27 04:48:00,61.0,51.1,29.98,SSE,162,0.0,0.0,70,0.00,,,0.00,meteobridge,2014-08-27 11:48:00,
2014-08-27 04:50:00,61.0,51.1,29.98,SSE,162,0.0,0.0,70,0.00,,,0.00,meteobridge,2014-08-27 11:50:00,
2014-08-27 04:51:00,61.0,51.4,29.98,SSE,162,0.0,0.0,71,0.00,,,0.00,meteobridge,2014-08-27 11:51:00,
2014-08-27 04:53:00,61.0,51.1,29.99,SSE,162,0.0,0.0,70,0.00,,,0.00,meteobridge,2014-08-27 11:53:00,
2014-08-27 04:54:00,61.0,51.4,29.99,SSE,162,0.0,0.0,71,0.00,,,0.00,meteobridge,2014-08-27 11:54:00,
2014-08-27 04:55:00,61.0,51.4,29.99,SSE,162,0.0,0.0,71,0.00,,,0.00,meteobridge,2014-08-27 11:55:00,
2014-08-27 04:56:00,61.0,51.4,29.99,SSE,162,0.0,0.0,71,0.00,,,0.00,meteobridge,2014-08-27 11:56:00,
2014-08-27 04:57:00,60.8,51.3,29.99,SSE,162,0.0,0.0,71,0.00,,,0.00,meteobridge,2014-08-27 11:57:00,
2014-08-27 04:58:00,60.8,51.3,29.99,SSE,162,0.0,0.0,71,0.00,,,0.00,meteobridge,2014-08-27 11:58:00,
2014-08-27 05:00:00,60.8,51.3,29.99,SSE,162,0.0,0.0,71,0.00,,,0.00,meteobridge,2014-08-27 12:00:00,
2014-08-27 05:01:00,60.8,51.3,29.99,SSE,162,0.0,0.0,71,0.00,,,0.00,meteobridge,2014-08-27 12:01:00,